Theta_e
353 363 367 368 366 365 364 363 362 362 362 362 362 362 363 363 364 363 363 363 363 364 362 359 357 354 354 353 356 359 359 358 357 355 355 355 355 352 351 352 353 347 350
356 362 367 367 365 365 365 364 362 362 361 362 362 362 362 363 364 363 363 362 361 360 360 358 355 352 353 354 356 356 357 356 355 353 353 354 354 351 350 351 350 347 349
355 362 364 366 366 365 364 363 362 361 361 361 361 362 362 363 364 364 363 362 360 357 355 353 352 352 353 354 354 354 354 353 352 352 353 350 347 352 350 350 350 349 348
357 361 362 366 366 365 364 363 362 361 361 361 361 362 362 363 363 363 362 362 359 356 353 352 352 352 352 353 353 353 353 351 353 354 349 351 345 353 351 349 348 348 347
355 358 364 366 365 365 365 363 362 362 361 362 362 362 362 363 362 362 362 361 358 354 351 351 352 353 353 353 353 352 352 353 355 353 348 340 345 351 354 350 348 347 348
351 354 363 365 365 365 365 364 362 362 362 362 362 362 362 362 362 361 361 361 358 355 352 351 352 352 353 353 352 351 350 351 350 339 341 340 347 355 355 352 352 351 347
351 358 362 364 365 365 365 365 363 362 362 362 362 362 362 361 361 361 361 359 357 355 352 350 349 349 348 348 347 348 347 346 337 333 337 344 348 354 355 353 351 349 348
352 361 360 363 364 364 364 364 363 362 362 362 362 362 362 361 360 361 360 359 357 355 352 350 348 347 347 346 345 346 345 344 335 334 337 340 348 351 353 354 354 353 352
354 361 360 357 362 364 363 362 362 362 361 361 361 361 361 361 360 360 359 358 356 355 352 350 348 347 346 345 345 345 345 344 337 333 334 339 348 351 352 352 353 355 355
349 358 358 357 356 359 361 362 362 361 361 361 361 360 360 360 359 359 357 357 356 354 352 350 348 348 346 345 345 346 346 344 336 332 330 338 345 346 347 348 351 354 356
346 351 355 351 354 354 356 360 361 361 361 361 360 360 357 355 355 355 354 356 356 354 352 350 348 348 347 346 347 347 347 335 331 332 338 348 349 350 349 349 350 352 355
342 345 353 352 352 351 349 358 359 359 359 359 358 359 357 355 354 350 352 356 356 354 353 351 349 349 346 335 336 346 338 333 331 335 341 350 351 352 351 352 353 353 355
342 344 350 357 356 351 349 356 354 354 357 358 359 359 357 354 352 350 350 349 350 353 345 346 344 340 336 334 333 336 334 335 334 342 345 351 350 352 353 354 355 356 355
327 341 350 357 358 356 353 354 353 349 351 352 355 358 356 353 351 349 346 346 346 345 340 340 336 337 336 338 338 346 344 343 344 348 346 351 348 351 354 354 355 356 356
330 335 349 355 359 361 362 357 354 350 349 349 351 352 352 351 350 349 344 346 345 342 341 339 340 338 340 342 346 348 346 348 348 349 349 352 350 351 354 355 356 356 357
336 339 344 358 362 363 359 363 370 358 351 350 348 348 351 352 348 348 350 344 346 339 341 339 341 344 344 343 348 351 351 352 353 352 350 349 352 351 352 354 356 357 358
333 339 343 346 365 362 363 362 364 365 357 355 349 350 350 350 351 350 346 348 343 343 342 342 344 348 345 347 347 353 353 353 352 353 353 350 349 351 352 353 355 356 357
335 336 339 338 352 363 362 363 360 360 358 355 351 351 352 349 354 354 349 345 348 351 349 348 344 343 342 341 344 348 348 349 351 354 352 350 348 348 349 353 353 354 355
337 333 337 341 339 349 362 362 363 361 359 356 355 350 351 350 351 354 347 347 350 349 349 344 344 342 339 341 341 347 349 349 352 348 349 350 351 346 348 351 351 351 352
334 332 332 336 340 346 345 360 362 361 358 358 356 351 353 352 350 350 348 346 346 343 340 343 341 341 338 340 337 336 343 345 349 349 349 348 349 351 349 350 347 347 349
333 336 339 342 347 344 342 347 354 353 356 356 356 356 356 353 352 349 346 344 347 341 340 340 340 338 337 340 339 339 340 348 345 346 351 348 347 349 349 351 351 348 350
331 336 337 340 342 346 343 341 349 352 353 355 357 358 356 355 353 352 347 347 343 342 341 340 338 335 337 338 333 332 329 331 338 347 348 347 345 347 347 350 347 345 350
330 333 331 339 339 346 346 343 340 341 349 351 352 353 355 355 356 354 353 347 347 346 342 343 343 339 334 339 337 334 328 323 333 345 345 344 342 346 345 343 345 346 348
326 329 332 339 342 338 342 337 337 332 331 341 349 351 353 357 355 354 354 353 347 348 346 346 346 345 343 336 340 340 339 344 332 330 341 342 344 348 346 346 341 336 331
324 324 332 339 340 338 341 340 334 330 328 333 334 340 350 356 355 354 354 354 351 349 350 347 348 347 346 338 337 335 337 344 342 333 326 335 341 341 341 338 336 335 335
320 322 328 332 335 341 337 336 337 336 335 333 332 336 336 349 352 352 354 354 353 351 347 345 346 349 346 342 339 340 339 337 335 333 330 329 330 335 338 337 334 333 337
Wind_Speed
16 17 18 19 19 18 15 15 15 14 14 13 13 13 12 13 13 13 13 13 12 11 11 10 9 7 7 9 11 11 10 9 9 9 9 10 9 9 9 10 6 11 10
20 17 16 19 19 18 16 15 15 14 13 13 13 13 13 12 12 12 12 11 11 11 10 9 8 8 8 9 9 9 8 6 4 5 7 8 10 8 8 10 13 9 9
19 16 16 18 19 18 16 15 15 14 14 13 13 12 12 12 11 11 11 10 10 10 9 8 8 8 8 8 8 7 6 3 3 2 3 5 7 11 8 8 9 8 7
18 14 15 15 19 19 16 14 14 14 13 13 13 12 11 11 11 11 10 10 10 9 9 8 8 7 7 7 6 5 4 3 6 7 6 9 8 10 11 7 6 6 5
16 14 14 14 16 18 18 15 14 14 13 13 13 12 11 10 10 10 9 9 9 9 8 8 8 7 7 6 5 4 2 4 9 10 9 5 5 8 9 7 5 5 6
16 15 17 14 14 15 17 16 15 13 13 13 13 13 12 11 10 9 8 7 7 8 7 7 6 5 5 5 3 2 1 6 9 8 9 6 7 11 9 7 4 4 4
17 17 16 15 14 14 15 16 15 16 14 14 13 12 12 11 10 10 9 8 6 6 6 6 5 4 4 3 2 1 2 6 7 9 9 7 8 11 9 6 5 2 2
16 16 14 15 12 13 13 14 15 15 15 14 14 12 11 10 10 9 8 8 8 7 7 5 4 4 3 3 3 2 3 6 9 9 9 5 10 11 9 7 6 5 5
17 16 12 13 12 11 10 11 12 13 16 16 14 13 12 11 10 9 8 8 7 7 6 6 5 4 4 4 4 4 5 6 6 7 11 6 9 9 8 8 7 7 7
13 18 14 11 12 11 10 10 10 12 13 14 16 15 14 12 10 9 8 8 7 6 6 6 5 4 4 5 6 7 6 8 7 9 8 6 12 10 8 7 7 8 9
12 13 15 15 12 11 11 11 11 12 12 13 12 14 12 8 9 11 11 12 11 9 7 6 6 6 7 8 11 12 10 5 8 7 1 12 11 10 8 7 7 8 9
13 14 15 15 15 12 11 13 11 11 9 9 10 11 8 9 9 12 12 14 13 10 8 8 7 7 7 6 6 12 5 9 8 8 5 14 12 10 8 8 7 8 9
8 12 16 14 14 14 11 10 7 7 7 8 12 10 10 8 6 8 5 7 7 10 6 8 7 5 7 7 8 7 9 10 7 4 9 14 12 10 9 9 8 9 10
10 6 13 16 13 12 9 10 10 9 9 8 11 11 8 6 7 6 6 9 8 7 8 6 6 8 9 9 10 5 9 7 3 1 7 13 12 12 12 11 11 11 12
8 6 10 17 13 10 7 5 8 10 9 11 10 12 10 9 7 7 8 8 9 7 8 6 7 8 8 9 5 6 6 5 6 1 4 13 14 15 14 14 13 13 12
7 8 6 8 13 10 8 6 2 7 9 9 10 12 14 8 9 8 6 9 8 9 9 8 6 6 5 3 6 7 6 6 4 5 4 6 12 14 15 15 15 12 12
6 8 7 3 9 12 9 7 5 4 4 5 7 11 14 13 10 9 8 5 7 8 10 12 10 6 4 3 6 4 5 7 6 7 5 4 7 13 14 13 13 13 12
4 6 8 10 5 12 12 9 7 7 5 6 5 6 13 14 11 6 5 7 5 4 3 0 2 4 4 5 6 5 6 6 8 7 5 4 5 5 11 13 13 12 13
3 4 2 8 9 8 8 8 8 9 8 8 8 9 12 15 14 7 8 7 7 5 4 5 4 5 5 5 6 5 5 5 5 3 6 6 7 4 2 10 14 12 12
3 6 5 0 6 8 6 6 5 7 9 9 8 11 9 11 15 12 9 8 7 5 6 7 7 6 6 5 8 6 6 6 6 6 6 5 5 6 6 7 6 5 11
7 5 4 4 1 4 4 5 8 10 9 9 10 12 9 13 16 14 11 11 8 11 13 14 14 13 9 7 4 4 5 6 6 5 5 5 6 7 8 6 4 4 4
7 6 6 5 5 5 3 4 5 5 11 11 11 13 15 13 16 16 17 13 15 11 12 12 13 11 10 10 7 3 2 5 7 9 7 5 7 5 7 7 7 4 3
3 4 6 5 5 6 5 4 5 6 8 8 10 11 13 16 16 19 19 17 14 14 14 15 14 15 11 8 10 6 3 6 4 4 5 4 6 5 4 6 5 5 3
4 5 6 4 6 6 7 7 8 9 10 8 11 11 13 19 19 19 18 18 19 14 17 15 13 13 8 10 5 8 5 2 2 2 1 4 5 5 7 4 5 4 2
6 7 5 2 3 6 6 6 8 9 10 10 10 13 14 15 20 19 21 20 19 15 17 17 15 16 12 11 10 8 10 3 2 2 3 3 2 3 1 2 1 4 6
8 7 6 7 5 3 6 8 9 10 11 11 13 12 12 11 15 21 21 20 19 18 18 15 16 18 17 15 11 10 11 8 6 4 2 3 5 3 4 4 5 6 7
Wind_Direction
130 136 137 134 135 137 141 140 136 134 136 137 130 119 112 109 108 109 104 102 104 108 113 111 108 104 94 81 79 80 80 80 82 89 96 96 87 69 60 43 315 84 82
131 142 142 137 137 140 144 144 141 139 142 139 133 129 124 121 119 115 111 110 109 115 118 117 119 114 107 101 92 82 81 79 90 111 119 118 113 89 68 61 68 83 81
132 137 145 141 139 143 146 148 145 144 145 139 135 132 131 130 130 123 121 120 121 124 122 122 122 116 112 105 97 93 79 47 340 321 248 209 132 118 95 77 77 82 80
135 144 143 146 143 144 147 148 146 147 147 142 141 139 138 136 137 132 131 135 135 135 130 130 128 126 121 113 106 92 75 349 306 295 266 230 142 131 120 107 97 98 83
140 154 135 144 146 145 147 147 147 148 148 146 145 145 145 144 143 142 143 145 144 140 138 140 141 140 135 134 128 108 50 309 302 304 284 49 103 135 128 129 138 128 94
141 152 139 138 141 147 147 150 149 151 153 151 152 152 151 150 145 144 148 147 148 146 147 148 146 149 155 153 139 129 308 298 312 289 290 100 98 141 140 136 124 117 101
143 131 143 139 143 147 150 153 158 156 159 156 157 153 154 154 154 153 153 148 153 151 150 151 151 153 164 164 159 168 294 300 291 291 294 109 126 152 146 154 146 155 177
129 133 142 138 142 146 151 156 159 162 159 158 156 154 155 156 157 156 156 157 160 161 161 165 163 169 181 187 193 213 261 288 300 296 305 81 141 143 155 170 183 203 220
133 134 143 156 147 139 147 155 162 165 161 156 154 154 156 159 160 160 160 162 165 162 167 168 174 191 201 219 228 239 250 266 283 286 286 111 135 135 157 179 199 212 224
144 136 142 161 168 164 164 158 163 164 164 160 158 159 159 159 161 165 160 169 173 178 175 176 186 212 228 233 238 240 250 271 266 268 271 136 148 155 168 193 205 220 227
152 146 146 166 172 183 171 169 163 171 169 160 160 162 156 177 176 177 193 175 178 183 186 190 199 207 231 243 241 232 228 234 238 234 198 144 157 156 177 206 217 224 230
165 168 152 161 165 183 194 158 178 182 189 190 183 177 192 204 179 193 188 168 175 185 194 198 206 219 230 253 230 229 227 232 240 247 157 161 161 163 185 212 224 229 231
205 172 158 156 160 178 208 156 175 182 189 191 199 189 197 202 211 190 160 168 175 189 194 195 199 220 225 231 247 190 215 228 237 216 151 164 163 168 192 216 221 232 234
254 221 156 153 160 176 187 163 175 187 187 190 196 194 188 213 200 182 174 182 186 181 204 192 197 199 215 234 254 224 223 217 282 328 155 172 169 180 197 213 216 220 231
305 327 173 158 160 169 198 196 174 184 192 192 186 194 194 191 214 199 192 186 177 183 187 214 203 198 209 219 254 236 257 266 247 329 149 184 184 191 201 210 219 222 223
325 349 22 156 158 162 183 214 224 179 192 189 195 191 187 193 205 203 196 201 175 187 177 198 213 198 199 217 230 227 225 229 247 224 248 184 203 203 204 207 215 223 228
11 2 337 288 157 166 180 211 223 262 210 189 193 182 188 201 198 207 193 217 202 199 198 183 194 177 159 227 246 253 218 222 221 224 215 242 210 210 215 207 213 215 225
23 350 351 342 343 176 181 190 213 231 233 231 203 184 186 197 204 199 192 199 201 209 195 344 160 152 181 198 223 218 224 240 223 204 201 229 247 195 222 204 208 211 222
207 146 0 351 341 356 212 196 192 210 239 231 231 206 197 196 198 193 213 205 206 173 185 173 192 190 198 185 231 219 221 227 228 203 218 230 217 212 218 202 207 208 215
151 100 96 89 304 318 319 212 217 209 220 234 229 235 200 190 199 199 202 206 200 199 202 188 178 226 206 194 216 223 220 214 213 206 210 233 241 202 196 178 191 207 223
47 44 33 359 335 311 309 280 211 223 218 220 228 234 214 189 192 200 209 212 209 212 206 203 200 194 205 198 171 214 237 218 226 215 201 201 226 213 182 196 194 198 221
21 10 358 329 282 241 242 262 287 242 222 221 221 223 222 209 196 197 204 206 212 212 218 212 215 207 204 191 198 136 227 267 245 217 198 198 210 227 184 193 174 198 226
338 343 320 309 301 298 286 268 287 277 261 240 234 224 224 222 206 202 199 204 206 210 214 217 213 216 203 198 196 152 187 228 188 185 204 193 210 220 192 183 171 194 235
341 330 293 294 317 296 272 266 243 264 279 278 232 240 212 212 219 204 206 207 213 206 217 213 215 213 197 198 199 218 244 110 267 113 241 215 216 211 207 180 122 107 209
334 281 282 259 321 308 284 291 273 263 275 282 267 274 231 210 212 215 208 209 211 215 217 224 215 207 197 194 195 188 207 181 163 248 194 206 222 236 165 219 232 248 229
293 327 320 316 261 286 287 300 288 269 261 263 274 282 260 243 208 212 215 213 211 217 216 218 217 207 209 207 198 189 182 181 187 188 209 220 207 225 214 204 213 241 241